Location: Yucca Valley
(34.1140°N, 116.4310°W)
Time: 19:04:45
(UTC-07:00)

Daily predictions for brighter satellites

Satellite Brightness Start Highest point End
(mag) Time Altitude Azimuth Time Altitude Azimuth Time Altitude Azimuth
Cosmos 1937 Rocket 3.7 19:19:14 10° S 19:24:17 53° ESE 19:29:24 10° NNE
Meteor 2-15 Rocket 4.4 19:19:23 10° N 19:25:32 74° E 19:31:39 10° SSE
Cosmos 1680 Rocket 3.8 19:21:28 10° NNW 19:26:44 75° WSW 19:31:56 10° S
COSMOS 2406 3.4 19:21:44 10° N 19:27:21 52° ENE 19:32:53 10° SE
Lacrosse 5 2.1 19:23:24 10° SSW 19:28:17 50° SE 19:33:11 10° NE
Cosmos 2228 3.6 19:24:34 10° SSW 19:28:46 62° W 19:32:59 10° N
OE (NEXTSAT) 4.4 19:28:06 10° SW 19:31:39 66° SE 19:35:14 10° ENE
Cosmos 2298 Rocket 4.0 19:26:54 10° SSW 19:32:11 81° ESE 19:37:31 10° NNE
Delta 2 Rocket 3.7 19:28:15 10° W 19:33:07 72° N 19:37:14 11° E
SeaSat 1 2.5 19:31:52 10° SE 19:36:42 60° ENE 19:41:34 10° NNW
Cosmos 1844 3.7 19:31:51 10° SSW 19:37:34 80° ESE 19:43:23 10° NNE
FREGAT/IRIS 2.6 19:34:46 10° SSE 19:37:49 85° E 19:40:54 10° N
Cosmos 405 3.4 19:36:11 10° SSW 19:39:40 66° W 19:43:11 10° N
Cosmos 1000 Rocket 4.5 19:34:44 10° N 19:40:54 69° E 19:47:05 10° SSE
NOAA 12 4.5 19:37:22 10° S 19:42:40 70° WSW 19:47:58 10° NNW
CZ-3B DEB 3.6 19:30:38 10° SW 19:44:40 75° NW 19:50:52 10° NE
CZ-2D R/B 4.3 19:42:47 10° SE 19:46:03 27° ENE 19:49:20 10° NNE
Cosmos 2123 Rocket 4.4 19:42:46 10° N 19:48:44 43° E 19:54:37 10° SSE
Cosmos 1805 4.2 19:48:43 10° SE 19:51:55 25° E 19:55:08 10° NE
Helios 1A 4.2 19:50:45 16° ESE 19:52:44 22° ENE 19:55:58 10° NNE
Helios 1B rocket 3.3 19:50:47 10° NE 19:54:21 28° E 19:57:53 10° SSE
Cosmos 1437 Rocket 3.2 19:50:59 10° SSW 19:54:55 68° W 19:58:57 10° N
SJ-6B 3.2 19:52:13 10° S 19:55:54 62° WSW 19:59:36 10° NNW
Lacrosse 4 Rocket 3.1 19:56:43 10° SW 20:00:28 35° WNW 20:04:12 10° N
Meteor 1-22 Rocket 4.3 19:55:24 10° S 20:01:06 84° E 20:07:06 10° N
Resurs 1-3 3.6 20:00:38 10° SSE 20:04:55 59° ENE 20:09:15 10° N
Yuri Rocket 3.7 20:03:45 10° WSW 20:07:39 37° S 20:09:36 23° SE
GPS 2-05 Rocket1 3.9 20:11:05 10° SW 20:14:13 29° SSE 20:14:30 28° SE
Cosmos 1758 3.6 20:12:20 10° SSE 20:16:05 43° E 20:19:52 10° NNE
Spot 2 Rocket 3.5 20:12:33 10° SSE 20:17:39 89° ENE 20:22:46 10° NNW
Tiangong 1 2.3 20:17:28 10° NW 20:20:01 26° NNE 20:20:13 26° NNE
Cosmos 2344 4.1 20:12:47 10° SW 20:20:23 64° NW 20:28:39 10° NNE
SAR-Lupe-4 3.7 20:19:40 41° ESE 20:20:24 49° ENE 20:23:52 10° N
In-Cosmos 22 4.0 20:17:55 10° N 20:23:13 66° E 20:27:42 14° SSE
Cosmos 1939 Rocket 4.3 20:25:22 23° NE 20:25:22 23° NE 20:27:49 10° NNE
Cosmos 1378 4.4 20:20:54 10° NNW 20:24:28 42° W 20:28:00 10° SSW
USA 186 3.7 20:28:06 13° N 20:28:06 13° N 20:28:26 10° N
Cosmos 1953 2.4 20:22:21 10° S 20:26:19 54° E 20:30:18 10° NNE
Cosmos 2278 Rocket 2.6 20:24:39 10° SSW 20:30:16 66° WNW 20:35:56 10° NNE
H-2A R/B 3.7 20:26:57 10° S 20:30:40 48° W 20:34:29 10° NNW
Cosmos 1459 Rocket 4.5 20:29:44 31° ESE 20:31:18 36° E 20:36:53 10° NNE
USA 215 3.2 20:26:51 10° NE 20:33:25 85° NW 20:39:56 10° SW
Cosmos 2173 Rocket 4.4 20:32:35 34° ESE 20:33:28 36° E 20:39:02 10° NNE
Cosmos 1833 Rocket 3.9 20:30:02 10° N 20:34:24 24° ENE 20:34:24 24° ENE
Okean 3 Rocket 3.4 20:30:29 10° N 20:34:52 79° E 20:36:57 31° SSE
Envisat 3.3 20:34:42 41° ESE 20:35:35 46° ENE 20:40:26 10° N
SAR-Lupe-1 3.9 20:39:57 78° NE 20:39:57 78° NE 20:43:25 10° N
Cosmos 1125 Rocket 3.3 20:36:38 10° S 20:41:48 76° ESE 20:47:00 10° NNE
Cosmos 2297 3.6 20:36:59 10° S 20:42:38 69° ESE 20:48:20 10° NNE
Meteor 1-4 Rocket 3.2 20:48:51 47° NNW 20:48:51 47° NNW 20:51:29 10° N
Cosmos 1544 4.0 20:46:32 10° SSW 20:50:02 47° W 20:53:34 10° N
GP-B 3.0 20:52:14 70° S 20:52:45 88° E 20:57:12 10° N
Resurs 01 Rocket 3.5 20:49:58 10° SSW 20:53:49 29° W 20:57:41 10° NW
ATLAS 5 CENTAUR R/B 4.0 20:49:53 10° S 20:50:05 11° S 20:50:05 11° S
SL-27 R/B 4.0 20:53:59 10° NW 20:57:15 33° WSW 20:58:00 30° SW
RESURS DK-1 3.0 20:53:34 10° NNW 20:57:35 52° WSW 20:58:05 48° SW
Meteor 1-29 4.1 20:56:45 10° N 21:00:03 43° WNW 21:00:09 43° W
ERS-1 Rocket 4.0 21:03:31 34° NNE 21:03:31 34° NNE 21:06:43 10° N
Cosmos 2082 Rocket 2.6 20:58:44 10° N 21:03:31 46° NE 21:03:31 46° NE
Cosmos 1818 3.8 21:01:55 10° NNW 21:06:41 54° NNE 21:06:41 54° NNE
Lacrosse 5 4.0 21:07:21 10° W 21:11:27 24° NW 21:15:35 10° NNE
Cosmos 1766 Rocket 4.4 21:09:14 10° N 21:12:20 44° NNW 21:12:20 44° NNW
Cosmos 1076 Rocket 4.3 21:09:53 10° NNW 21:13:29 50° WNW 21:13:29 50° WNW
Cosmos 2100 Rocket 3.9 21:13:07 32° S 21:16:19 86° W 21:22:42 10° N
Cosmos 1269 Rocket 4.4 21:16:51 10° NNW 21:21:03 57° N 21:21:03 57° N
Cosmos 1802 Rocket 4.1 21:34:35 70° NNW 21:34:35 70° NNW 21:40:04 10° N
Cosmos 2061 Rocket 4.4 21:41:04 55° WSW 21:42:06 62° W 21:48:28 10° N
